Location: Cerezo de Arriba
(41.2389°N, 3.5585°W)
Time: 03:52:45
(UTC+00:00)

Nadezhda 3 Rocket - Pass Details

Date: 19 May 2025
Orbit: 957 x 997 km, 82.9° (Epoch: 23 June)

Event Time Altitude Azimuth Distance (km) Brightness Sun altitude
Exits shadow 23:06:39 48° 228° (SW) 1,236 4.3 -27.0°
Maximum altitude 23:08:07 62° 280° (W) 1,085 4.2 -27.1°
Drops below altitude 10° 23:14:18 10° 1° (N) 2,727 7.2 -27.4°
Sets 23:16:53 0° 5° (N) 3,685 8.1 -27.5°
